EW8328 Weather Reports


Display with metric or nautical units.
time (UTC)temp
F
wind
direction
speed
MPH
gust
MPH
rain 1hr
in
rain 24hr
in
rain mn
in
humidity
%
barometer
mb
20260504020853 45 70 1.0 3.0 0.00 0.13 0.00 92 1013.3
20260504020353 45 348 2.0 3.0 0.00 0.13 0.00 92 1013.3
20260504015853 45 65 0.0 2.0 0.00 0.14 0.00 92 1013.4
20260504015352 45 9 1.0 3.0 0.00 0.14 0.00 92 1013.3
20260504014852 45 40 1.0 5.0 0.00 0.14 0.00 92 1013.3
20260504014352 45 15 2.0 6.0 0.00 0.14 0.00 92 1013.3
20260504013352 46 286 1.0 3.0 0.00 0.15 0.00 92 1013.3
20260504012353 46 43 1.0 3.0 0.00 0.15 0.00 92 1013.2
20260504011852 46 72 1.0 5.0 0.00 0.16 0.00 92 1013.1
20260504010852 46 8 2.0 5.0 0.00 0.17 0.00 92 1013.1
20260504010352 46 5 1.0 3.0 0.00 0.17 0.00 92 1013.1
20260504005853 46 3 1.0 2.0 0.00 0.18 0.00 92 1013.1
20260504005352 46 98 1.0 3.0 0.00 0.18 0.00 92 1013.0
20260504004852 46 9 1.0 3.0 0.00 0.19 0.00 92 1013.0
20260504003853 46 69 2.0 3.0 0.00 0.20 0.00 92 1013.0
20260504003352 46 142 1.0 3.0 0.00 0.21 0.00 93 1013.0
20260504002853 46 75 1.0 3.0 0.00 0.21 0.00 93 1013.0
20260504002352 46 72 0.0 2.0 0.00 0.22 0.00 93 1012.9
20260504001853 46 94 1.0 3.0 0.00 0.23 0.00 93 1012.9
20260504001353 46 121 2.0 6.0 0.00 0.24 0.00 93 1012.9
20260504000853 46 58 1.0 15.0 0.00 0.24 0.00 93 1012.9
20260504000354 46 33 1.0 3.0 0.00 0.24 0.00 93 1012.9
20260503235853 46 0 1.0 5.0 0.00 0.25 0.00 93 1013.0
20260503235352 46 31 1.0 5.0 0.00 0.26 0.00 93 1013.0
20260503234852 46 28 2.0 5.0 0.00 0.27 0.00 93 1013.0
20260503233852 46 9 1.0 3.0 0.00 0.28 0.00 94 1012.9
20260503233352 46 16 1.0 3.0 0.00 0.28 0.00 94 1013.0
20260503232853 46 351 1.0 3.0 0.00 0.28 0.00 93 1013.0
20260503232353 46 40 1.0 5.0 0.00 0.29 0.00 93 1012.9
20260503231853 46 355 1.0 3.0 0.00 0.30 0.00 93 1012.9
20260503231352 46 49 0.0 3.0 0.00 0.31 0.00 93 1012.9
20260503230937 46 54 1.0 8.0 0.00 0.31 0.00 93 1012.9
20260503230353 46 42 1.0 2.0 0.00 0.32 0.00 93 1012.9
20260503225852 46 11 2.0 3.0 0.00 0.33 0.33 93 1012.8
20260503225352 46 355 0.0 2.0 0.00 0.34 0.33 93 1012.8
20260503224853 46 355 0.0 3.0 0.00 0.35 0.33 93 1012.8
20260503223853 46 260 1.0 2.0 0.00 0.35 0.33 93 1012.7
20260503223352 46 144 1.0 2.0 0.00 0.35 0.33 93 1012.7
20260503222852 47 7 0.0 2.0 0.00 0.36 0.33 93 1012.7
20260503221853 47 15 1.0 6.0 0.00 0.37 0.33 93 1012.5
20260503221352 47 18 2.0 5.0 0.00 0.37 0.33 93 1012.5
20260503220353 47 352 1.0 3.0 0.00 0.39 0.33 92 1012.5
20260503215852 47 13 1.0 2.0 0.00 0.39 0.33 92 1012.4
20260503215352 47 25 1.0 3.0 0.00 0.39 0.33 92 1012.3
20260503214853 47 80 1.0 3.0 0.00 0.40 0.33 92 1012.4
20260503214352 47 15 2.0 3.0 0.00 0.41 0.33 92 1012.4
20260503213853 47 75 1.0 3.0 0.00 0.42 0.33 92 1012.3
20260503212352 47 125 1.0 2.0 0.00 0.44 0.33 92 1012.3
20260503211853 47 44 2.0 5.0 0.00 0.44 0.33 92 1012.4
20260503210854 47 96 1.0 3.0 0.00 0.45 0.33 92 1012.3
20260503210353 47 96 1.0 3.0 0.00 0.46 0.33 92 1012.2
20260503205852 47 105 0.0 2.0 0.00 0.46 0.33 92 1012.2
20260503204853 47 236 1.0 3.0 0.00 0.46 0.33 92 1012.1
20260503204352 47 330 2.0 3.0 0.00 0.46 0.33 92 1012.1
20260503203853 47 195 1.0 3.0 0.00 0.46 0.33 92 1012.0
20260503203353 47 198 2.0 5.0 0.00 0.46 0.33 92 1011.9
20260503201852 47 142 4.0 8.0 0.00 0.46 0.33 92 1011.7
20260503201352 47 319 1.0 3.0 0.00 0.46 0.33 92 1011.7
20260503200352 47 246 1.0 3.0 0.00 0.46 0.33 92 1011.6
20260503195853 47 227 2.0 3.0 0.00 0.46 0.33 92 1011.5
20260503195352 48 226 3.0 5.0 0.00 0.46 0.33 92 1011.3
20260503194852 48 345 1.0 5.0 0.00 0.46 0.33 92 1011.4
20260503194352 48 338 1.0 3.0 0.00 0.46 0.33 92 1011.3
20260503193852 48 255 2.0 5.0 0.00 0.46 0.33 92 1011.2
20260503193352 48 17 1.0 3.0 0.00 0.46 0.33 92 1011.2
20260503191853 48 164 2.0 8.0 0.00 0.46 0.33 92 1010.9
20260503191354 48 244 2.0 3.0 0.00 0.46 0.33 91 1010.9
20260503190853 48 9 0.0 2.0 0.00 0.46 0.33 91 1010.9
20260503190353 48 9 1.0 3.0 0.00 0.46 0.33 92 1010.8
20260503185853 48 28 1.0 5.0 0.00 0.46 0.33 92 1010.7
20260503185352 48 243 1.0 5.0 0.00 0.46 0.33 92 1010.7
20260503183853 48 86 1.0 2.0 0.00 0.46 0.33 92 1010.6
20260503183352 48 12 3.0 8.0 0.00 0.46 0.33 92 1010.5
20260503182853 48 75 1.0 6.0 0.00 0.46 0.33 92 1010.4
20260503182352 48 21 0.0 3.0 0.00 0.46 0.33 92 1010.4
20260503181852 48 41 1.0 6.0 0.00 0.46 0.33 92 1010.4
20260503181352 48 357 2.0 6.0 0.00 0.46 0.33 92 1010.4
20260503180852 49 28 2.0 6.0 0.00 0.46 0.33 92 1010.4
20260503180352 49 10 2.0 5.0 0.00 0.46 0.33 92 1010.3
20260503175852 49 49 2.0 5.0 0.00 0.46 0.33 92 1010.3
20260503175352 49 55 0.0 2.0 0.00 0.46 0.33 92 1010.2
20260503174852 49 47 1.0 6.0 0.00 0.46 0.33 92 1010.1
20260503173852 49 356 1.0 5.0 0.00 0.46 0.33 92 1010.1
20260503173352 49 306 1.0 3.0 0.00 0.46 0.33 92 1010.1
20260503172352 49 103 2.0 8.0 0.00 0.46 0.33 92 1010.0
20260503171352 49 8 2.0 6.0 0.00 0.46 0.33 92 1009.9
20260503170853 49 350 1.0 5.0 0.00 0.46 0.33 92 1010.0
20260503170352 49 354 3.0 7.0 0.00 0.46 0.33 92 1009.9
20260503150853 51 17 1.0 8.0 0.00 0.46 0.33 92 1009.5
20260503150352 51 348 3.0 7.0 0.00 0.46 0.33 91 1009.4
20260503131352 51 18 2.0 8.0 0.00 0.46 0.33 93 1009.1
20260503130852 51 23 2.0 6.0 0.00 0.46 0.33 93 1009.1
20260503130352 51 4 2.0 7.0 0.01 0.46 0.33 93 1009.1
20260503090352 50 46 3.0 8.0 0.03 0.43 0.29 94 1008.3
20260503081352 50 22 3.0 10.0 0.02 0.39 0.26 93 1008.3
20260503080852 50 13 4.0 13.0 0.02 0.39 0.26 93 1008.3
20260503080352 50 300 2.0 8.0 0.02 0.39 0.26 93 1008.3
20260503072852 50 38 4.0 12.0 0.01 0.39 0.25 93 1008.0
20260503072352 50 6 5.0 12.0 0.00 0.38 0.24 93 1007.9
20260503071852 50 10 3.0 10.0 0.00 0.38 0.24 93 1007.9
20260503071351 50 5 5.0 13.0 0.00 0.38 0.24 93 1007.8
20260503070851 50 1 4.0 12.0 0.00 0.38 0.24 93 1007.8
20260503070351 50 32 3.0 10.0 0.00 0.38 0.24 93 1007.8
20260503054852 50 339 2.0 13.0 0.00 0.38 0.24 93 1007.5
20260503052852 50 13 5.0 12.0 0.00 0.38 0.24 93 1007.4
20260503052351 50 357 2.0 10.0 0.00 0.38 0.24 93 1007.3
20260503051852 50 13 5.0 10.0 0.00 0.38 0.24 93 1007.3
20260503051352 50 359 5.0 9.0 0.00 0.38 0.24 93 1007.3
20260503050852 50 46 4.0 10.0 0.00 0.38 0.24 93 1007.4
20260503050352 50 30 2.0 9.0 0.00 0.38 0.24 93 1007.4
20260503045851 50 37 3.0 14.0 0.00 0.38 0.24 93 1007.4
20260503044851 50 71 2.0 10.0 0.01 0.38 0.24 93 1007.4
20260503044351 50 22 4.0 12.0 0.01 0.38 0.24 93 1007.4
20260503043852 50 36 5.0 9.0 0.01 0.38 0.24 93 1007.4
20260503043351 50 23 3.0 10.0 0.01 0.38 0.24 93 1007.4
20260503042351 50 73 3.0 9.0 0.02 0.38 0.24 93 1007.4
20260503041851 50 0 2.0 9.0 0.02 0.38 0.24 93 1007.4
20260503041351 51 26 4.0 12.0 0.02 0.38 0.24 93 1007.5
20260503040851 51 39 5.0 10.0 0.02 0.38 0.24 93 1007.4
20260503040352 51 11 3.0 7.0 0.02 0.38 0.24 93 1007.6
20260503035851 51 329 2.0 12.0 0.02 0.38 0.24 93 1007.6
20260503035351 51 338 3.0 9.0 0.02 0.38 0.24 93 1007.7
20260503034851 51 6 2.0 8.0 0.02 0.37 0.24 93 1007.9
20260503034351 51 9 1.0 5.0 0.02 0.37 0.24 93 1008.0
20260503032851 51 307 2.0 6.0 0.02 0.37 0.24 93 1008.1
20260503032351 51 23 2.0 8.0 0.02 0.36 0.23 93 1008.2
20260503031851 51 32 2.0 5.0 0.02 0.36 0.23 93 1008.2
20260503030851 51 201 1.0 2.0 0.02 0.35 0.22 93 1008.4
20260503030351 51 24 1.0 6.0 0.02 0.35 0.22 93 1008.4
20260503025852 51 165 2.0 5.0 0.03 0.35 0.22 94 1008.4
20260503025351 51 343 2.0 8.0 0.03 0.35 0.22 94 1008.4
20260503024851 51 359 2.0 3.0 0.03 0.35 0.22 94 1008.4
20260503024351 51 27 0.0 3.0 0.03 0.35 0.22 94 1008.4
20260503023852 51 193 1.0 3.0 0.04 0.35 0.22 94 1008.5
20260503023351 51 193 1.0 5.0 0.03 0.35 0.21 94 1008.5
20260503022851 51 47 2.0 5.0 0.03 0.35 0.21 94 1008.6
20260503022351 51 112 1.0 7.0 0.02 0.34 0.20 94 1008.5
20260503021852 51 15 1.0 5.0 0.03 0.34 0.20 94 1008.5